TimeCDT,TemperatureF,Dew PointF,Humidity,Sea Level PressureIn,VisibilityMPH,Wind Direction,Wind SpeedMPH,Gust SpeedMPH,PrecipitationIn,Events,Conditions,WindDirDegrees,DateUTC
12:54 AM,48.0,46.0,93,30.01,6.0,Calm,Calm,-,N/A,,Clear,0,2013-04-28 05:54:00
1:47 AM,46.4,44.6,93,29.99,0.8,Calm,Calm,-,N/A,,Clear,0,2013-04-28 06:47:00
1:54 AM,45.0,43.0,93,29.99,8.0,Calm,Calm,-,N/A,,Clear,0,2013-04-28 06:54:00
2:01 AM,46.4,44.6,93,29.99,0.2,Calm,Calm,-,N/A,Fog,Fog,0,2013-04-28 07:01:00
2:24 AM,44.6,42.8,93,29.98,0.5,Calm,Calm,-,N/A,Fog,Fog,0,2013-04-28 07:24:00
2:32 AM,44.6,42.8,93,29.98,1.0,Calm,Calm,-,N/A,,Mist,0,2013-04-28 07:32:00
2:40 AM,44.6,42.8,93,29.98,0.5,Calm,Calm,-,N/A,Fog,Fog,0,2013-04-28 07:40:00
2:54 AM,45.0,43.0,93,29.98,0.2,Calm,Calm,-,N/A,Fog,Fog,0,2013-04-28 07:54:00
3:03 AM,44.6,42.8,93,29.98,1.0,Calm,Calm,-,N/A,,Mist,0,2013-04-28 08:03:00
3:06 AM,44.6,44.6,100,29.98,2.0,Calm,Calm,-,N/A,,Partly Cloudy,0,2013-04-28 08:06:00
3:19 AM,44.6,42.8,93,29.98,0.8,Calm,Calm,-,N/A,,Clear,0,2013-04-28 08:19:00
3:23 AM,42.8,42.8,100,29.97,0.5,Calm,Calm,-,N/A,Fog,Fog,0,2013-04-28 08:23:00
3:54 AM,42.1,41.0,96,29.96,0.2,South,3.5,-,N/A,Fog,Fog,190,2013-04-28 08:54:00
4:54 AM,42.1,41.0,96,29.99,0.5,Calm,Calm,-,N/A,Fog,Fog,0,2013-04-28 09:54:00
5:54 AM,41.0,39.9,96,29.99,0.5,Calm,Calm,-,N/A,Fog,Fog,0,2013-04-28 10:54:00
6:09 AM,42.8,39.2,87,29.98,0.8,Calm,Calm,-,N/A,,Clear,0,2013-04-28 11:09:00
6:15 AM,41.0,39.2,93,29.98,0.5,Calm,Calm,-,N/A,Fog,Fog,0,2013-04-28 11:15:00
6:27 AM,39.2,39.2,100,29.98,0.2,Calm,Calm,-,N/A,Fog,Fog,0,2013-04-28 11:27:00
6:54 AM,41.0,41.0,100,29.99,0.2,Calm,Calm,-,N/A,Fog,Fog,0,2013-04-28 11:54:00
7:29 AM,44.6,42.8,93,29.98,1.0,Calm,Calm,-,N/A,,Mist,0,2013-04-28 12:29:00
7:32 AM,44.6,42.8,93,29.99,2.5,Calm,Calm,-,N/A,,Partly Cloudy,0,2013-04-28 12:32:00
7:39 AM,46.4,44.6,93,29.99,7.0,Calm,Calm,-,N/A,,Clear,0,2013-04-28 12:39:00
7:54 AM,46.4,46.4,100,29.99,8.0,Calm,Calm,-,N/A,,Clear,0,2013-04-28 12:54:00
8:54 AM,53.1,48.9,86,29.98,10.0,Variable,4.6,-,N/A,,Clear,0,2013-04-28 13:54:00
9:54 AM,57.9,51.1,78,29.97,10.0,SSW,5.8,-,N/A,,Clear,200,2013-04-28 14:54:00
10:54 AM,62.1,52.0,70,29.96,10.0,Variable,4.6,-,N/A,,Clear,0,2013-04-28 15:54:00
11:54 AM,66.0,52.0,60,29.95,10.0,SW,5.8,-,N/A,,Clear,230,2013-04-28 16:54:00
12:54 PM,69.1,50.0,51,29.92,10.0,SW,5.8,-,N/A,,Clear,230,2013-04-28 17:54:00
1:54 PM,72.0,51.1,48,29.90,10.0,SW,9.2,-,N/A,,Clear,220,2013-04-28 18:54:00
2:54 PM,73.0,51.1,46,29.87,10.0,South,6.9,-,N/A,,Clear,190,2013-04-28 19:54:00
3:54 PM,75.0,51.1,43,29.83,10.0,South,12.7,19.6,N/A,,Clear,180,2013-04-28 20:54:00
4:54 PM,73.9,50.0,43,29.80,10.0,SSW,9.2,-,N/A,,Clear,200,2013-04-28 21:54:00
5:54 PM,73.9,52.0,46,29.79,10.0,South,9.2,-,N/A,,Clear,180,2013-04-28 22:54:00
6:54 PM,73.0,52.0,48,29.79,10.0,South,15.0,21.9,N/A,,Clear,190,2013-04-28 23:54:00
7:54 PM,70.0,54.0,57,29.79,10.0,South,9.2,17.3,N/A,,Clear,170,2013-04-29 00:54:00
8:54 PM,68.0,54.0,61,29.79,10.0,South,8.1,-,N/A,,Clear,170,2013-04-29 01:54:00
9:54 PM,66.9,53.1,61,29.80,10.0,South,9.2,-,N/A,,Clear,170,2013-04-29 02:54:00
10:54 PM,64.0,53.1,67,29.79,10.0,South,8.1,-,N/A,,Clear,170,2013-04-29 03:54:00
11:54 PM,63.0,53.1,70,29.80,10.0,South,6.9,-,N/A,,Clear,190,2013-04-29 04:54:00